Regional Weather Roundup
Issued by NWS

Home | Current Version | Previous Version | Text Only | Print | Product List | Glossary Off
Versions: 1 2 3 4 5 6 7 8 9 10 11 12 13 14 15 16 17 18 19 20 21 22 23 24 25 26 27 28 29 30 31 32 33 34 35 36 37 38 39 40 41 42 43 44 45 46 47 48 49 50

000
ASUS43 KMPX 182010
RWRMN
WEATHER ROUNDUP FOR MINNESOTA
NATIONAL WEATHER SERVICE TWIN CITIES/CHANHASSEN MN
300 PM CDT FRI AUG 18 2017


NOTE: "FAIR" INDICATES FEW OR NO CLOUDS BELOW 12,000 FEET WITH NO
SIGNIFICANT WEATHER AND/OR OBSTRUCTIONS TO VISIBILITY. N/A MEANS
CURRENT SKY AND/OR WEATHER CONDITIONS ARE NOT AVAILABLE.

MNZ060>063-068>070-182100-
   Twin Cities Metro

CITY           SKY/WX    TMP DP  RH WIND       PRES   REMARKS
TWIN CITIES    CLOUDY    68  62  81 SW7       29.90F
ST PAUL        CLOUDY    67  63  87 SW3       29.90F
CRYSTAL        PTSUNNY   71  60  68 W6        29.88F
BLAINE         CLOUDY    73  64  73 SW8       29.89F
LAKEVILLE      CLOUDY    68  63  83 SW5       29.91F
EDEN PRAIRIE   CLOUDY    73  63  70 SW8       29.90F
SOUTH ST PAUL  PTSUNNY   66  62  87 SW7       29.90F
LAKE ELMO      FAIR      68  61  77 W7        29.91F
$$
MNZ001>005-007-008-013>017-022>024-027-028-182100-
   Northwest Minnesota

CITY           SKY/WX    TMP DP  RH WIND       PRES   REMARKS
BEMIDJI        MOSUNNY   77  56  48 NW3       29.85S
HALLOCK        SUNNY     82  48  30 W12G17    29.81F
ROSEAU         SUNNY     81  59  47 W10       29.82F
WARROAD        SUNNY     77  61  57 W12       29.82S
THIEF RVR FALL MOSUNNY   78  52  40 NW10      29.85S
CROOKSTON      CLOUDY    81  54  39 N12       29.84S
FOSSTON        CLOUDY    75  54  46 W6        29.85S
DETROIT LAKES  PTSUNNY   73  61  64 SW10      29.88F
MOORHEAD       MOSUNNY   75  61  60 W6        29.86F
PARK RAPIDS    TSTM      62  55  77 S22G31    29.89R
MAHNOMEN       FAIR      65  54  68 W8        29.87F
$$
MNZ006-009>011-018-025>026-182100-
   North Central Minnesota

CITY           SKY/WX    TMP DP  RH WIND       PRES   REMARKS
BAUDETTE       CLOUDY    78  55  44 NW9       29.81F
FLAG ISLAND    SUNNY     79  55  44 NW5       29.78F HAZE
INTL FALLS     PTSUNNY   78  59  51 NW5       29.80F
WASKISH        SUNNY     79  57  47 SW7       29.82F
BIG FORK       MOSUNNY   77  57  50 CALM      29.83F
LONGVILLE      MOSUNNY   72  63  73 SW3       29.85F
GRAND RAPIDS   CLOUDY    75  59  57 VRB6      29.86F
CRANE LAKE     CLOUDY    73  55  53 NW3       29.83S
ORR            SUNNY     75  52  43 W3        29.81S
COOK           CLOUDY    75  55  50 W6        29.84S
WALKER         FAIR      74  55  50 CALM      29.85S
$$
MNZ012-019>021-037-182100-
   Northeast Minnesota

CITY           SKY/WX    TMP DP  RH WIND       PRES   REMARKS
DULUTH         CLOUDY    69  62  78 W7        29.86S
ELY            CLOUDY    72  57  60 W6        29.83F
HIBBING        CLOUDY    73  58  59 CALM      29.84F
EVELETH        PTSUNNY   73  58  60 W7        29.86S
DULUTH HARBOR  CLOUDY    72  64  78 SW7       29.85S
TWO HARBORS    CLOUDY    73  63  68 W5        29.82F
SILVER BAY     CLOUDY    73  61  64 CALM      29.82S
GRAND MARAIS     N/A     65  62  90 SW10      29.80S
G MARAIS ARPRT CLOUDY    66  54  63 NW5       29.84S
$$
MNZ029>031-032-039>041-046>048-054>057-064-182100-
   West Central Minnesota

CITY           SKY/WX    TMP DP  RH WIND       PRES   REMARKS
FERGUS FALLS   CLOUDY    70  59  68 CALM      29.88F
WHEATON        CLOUDY    70  59  68 N3        29.90R
MORRIS         CLOUDY    72  63  73 E6        29.87F
ALEXANDRIA     LGT RAIN  64  62  93 NE10      29.93S
ELBOW LAKE     PTSUNNY   67  62  85 SE6       29.89F HAZE
WADENA         CLOUDY    66  61  82 S10       29.89F
GLENWOOD       CLOUDY    72  61  68 N6        29.91S
APPLETON       CLOUDY    75  63  64 E5        29.87F
BENSON         PTSUNNY   73  61  64 CALM      29.90S
ORTONVILLE     PTSUNNY   72  61  68 E9        29.85F
MADISON        MOSUNNY   79  64  61 SE9       29.86F
WILLMAR        FAIR      73  61  64 S5        29.91S
$$
MNZ033>034-036-042>043-049>051-058-059-182100-
   Central Minnesota

CITY           SKY/WX    TMP DP  RH WIND       PRES   REMARKS
ST CLOUD       CLOUDY    72  63  73 MISG      29.89F
SAUK CENTRE    LGT RAIN  69  60  74 NW8       29.91S
PAYNESVILLE    CLOUDY    72  60  65 CALM      29.90F
AITKIN         PTSUNNY   75  61  60 SW8       29.85F
PINE RIVER     CLOUDY    66  55  68 N10G17    29.90R THUNDER
BRAINERD       CLOUDY    75  63  66 S14       29.87F
STAPLES        PTSUNNY   61  55  82 SW9       29.90S
LONG PRAIRIE   TSTM      61  55  82 NW9G22    29.93R
LITTLE FALLS   CLOUDY    73  57  56 W8        29.89S
LITCHFIELD     PTSUNNY   72  64  78 CALM      29.91F
BUFFALO        CLOUDY    72  61  67 W8        29.92R
MAPLE LAKE     CLOUDY    73  64  71 W7        29.92R
HUTCHINSON     MOSUNNY   72  62  71 SW6       29.93F
$$
MNZ037-044-045-052-053-182100-
   East Central Minnesota

CITY           SKY/WX    TMP DP  RH WIND       PRES   REMARKS
PRINCETON      PTSUNNY   73  63  68 SW8       29.90S
MORA           CLOUDY    68  61  77 SW3       29.90S
CAMBRIDGE      CLOUDY    73  61  64 SW5       29.89S
RUSH CITY      CLOUDY    68  62  80 CALM      29.89S
MOOSE LAKE     CLOUDY    70  61  73 CALM      29.85F
HINCKLEY       FAIR      70  64  83 SW5       29.88S
CLOQUET        CLOUDY    70  59  68 CALM      29.86F
MCGREGOR       CLOUDY    73  63  68 SW7       29.87F
$$
MNZ071>073-080-081-089-090-097-098-182100-
   Southwest Minnesota

CITY           SKY/WX    TMP DP  RH WIND       PRES   REMARKS
MONTEVIDEO     MOSUNNY   79  66  65 SE7       29.88F
GRANITE FALLS  SUNNY     77  63  61 SE7       29.89F
CANBY          MOSUNNY   79  60  52 CALM      29.88F
MARSHALL       MOSUNNY   79  62  56 SW12      29.87F
REDWOOD FALLS  MOSUNNY   75  61  61 SE6       29.89F
OLIVIA         MOSUNNY   72  64  78 SE5       29.89F
PIPESTONE      SUNNY     77  63  61 SW9       29.92S
WINDOM         SUNNY     75  59  57 CALM      29.92S
WORTHINGTON    MOSUNNY   76  62  62 S7        29.92F
JACKSON        MOSUNNY   75  59  57 CALM      29.93S
TRACY          MOSUNNY   77  64  63 SW6       29.90F
SLAYTON        SUNNY     77  56  49 SW5       29.92F
$$
MNZ065>067-074>077-082>085-091>093-182100-
   South Central Minnesota

CITY           SKY/WX    TMP DP  RH WIND       PRES   REMARKS
MANKATO        MOSUNNY   71  60  68 VRB7      29.92F
NEW ULM        MOSUNNY   72  59  64 SE6       29.92R
ST JAMES       SUNNY     73  61  64 E3        29.92F
FAIRMONT       MOSUNNY   73  61  65 CALM      29.92F
GLENCOE        CLOUDY    71  64  78 SW7       29.92R
FARIBAULT      CLOUDY    70  63  78 CALM      29.93S
OWATONNA       PTSUNNY   72  63  73 S5        29.92F
WASECA         MOSUNNY   72  61  68 S7        29.93F
ALBERT LEA     MOSUNNY   70  64  83 NE5       29.94F
$$
MNZ078>079-086>088-094>096-182100-
   Southeast Minnesota

CITY           SKY/WX    TMP DP  RH WIND       PRES   REMARKS
ROCHESTER      CLOUDY    64  62  93 W10       29.95S
RED WING       RAIN      68  63  83 W6        29.90F
STANTON        LGT RAIN  67  63  85 W3        29.91S
DODGE CENTER   LGT RAIN  64  61  88 SW3       29.94F
WINONA         CLOUDY    70  63  78 W6        29.92R
AUSTIN         LGT RAIN  63  59  88 CALM      29.95F
PRESTON        CLOUDY    65  60  82 NW12      29.94F
$$
ABBREVIATIONS USED IN REMARKS
   TC - TEMPERATURES IN CELSIUS
  WCI - WIND CHILL INDEX
   HX - HEAT INDEX
  VSB - VISIBILITY
$$




USA.gov is the U.S. government's official web portal to all federal, state and local government web resources and services.